Location: Kitchener-Waterloo
(43.4500°N, 80.5000°W)
Time: 15:25:23
(UTC-05:00)

Amateur Radio Satellites - All Passes

Search period start: 22 January 2017 14:55
Search period end: 23 January 2017 14:55
Location: Kitchener-Waterloo, 43.4500°N, 80.5000°W

Satellite Date Start Highest point End Downlink Frequencies (MHz)
Time Altitude Azimuth
AIST 1 22 Jan 14:58:52 15:02:23 23° 288° (WNW) 15:05:54
BEESAT 3 22 Jan 15:13:06 15:15:56 20° 112° (ESE) 15:18:49 437.485
Cosmos 2504 22 Jan 15:13:34 15:22:15 88° 277° (W) 15:30:23 435.465 / 435.565
Cosmos 2491 22 Jan 15:21:38 15:27:35 21° 282° (WNW) 15:33:34 435.465 / 435.565
AO-85 22 Jan 15:22:59 15:26:08 18° 319° (NW) 15:29:08 145.980
YUBILEINY 22 Jan 15:26:12 15:34:37 48° 287° (WNW) 15:43:07 435.215
ITUPSAT 1 22 Jan 15:30:31 15:35:20 75° 286° (WNW) 15:40:08 437.325
O/OREOS (USA 219) 22 Jan 15:32:04 15:36:27 49° 63° (ENE) 15:40:51 437.305
DANDE 22 Jan 15:36:00 15:43:48 63° 265° (W) 15:52:00 436.750
MOZHAYETS 4 22 Jan 15:38:40 15:43:09 45° 99° (E) 15:47:35
ITAMSAT 1 22 Jan 15:44:26 15:48:40 25° 266° (W) 15:52:55 435.822/435.867
M-CUBED/EXP-1 PRIME 22 Jan 15:57:52 15:59:47 15° 98° (E) 16:01:40 437.505
KKS-1 22 Jan 16:02:05 16:05:42 24° 95° (E) 16:09:17 437.445
BEESAT 2 22 Jan 16:02:17 16:05:42 28° 115° (ESE) 16:09:08 435.950
BEESAT 22 Jan 16:03:57 16:08:18 35° 292° (WNW) 16:12:38 436.000
SWISSCUBE 22 Jan 16:05:58 16:10:10 31° 293° (WNW) 16:14:21 437.505
CUSAT 1 22 Jan 16:08:38 16:12:49 16° 283° (WNW) 16:16:51 437.405
HORYU 2 22 Jan 16:10:50 16:14:29 26° 66° (ENE) 16:18:10 437.375
GOMX 1 22 Jan 16:16:23 16:20:56 30° 68° (ENE) 16:25:18 467.674
Cubesat XI-IV 22 Jan 16:17:21 16:20:13 15° 58° (ENE) 16:23:04 437.490
NOAA 15 22 Jan 16:17:38 16:20:43 16° 58° (ENE) 16:23:48 137.62
BRITE-PL 22 Jan 16:23:05 16:28:46 77° 75° (ENE) 16:34:21 437.365/2234.400
SO-50 22 Jan 16:27:53 16:32:24 76° 238° (WSW) 16:36:51 436.795
CUBESAT XI-V 22 Jan 16:31:03 16:34:57 25° 94° (E) 16:38:48 437.345
AUBIESAT-1 22 Jan 16:31:37 16:34:36 30° 103° (ESE) 16:37:34 437.475
NOAA 18 22 Jan 16:40:47 16:43:41 15° 57° (ENE) 16:46:35 137.9125
DOVE 4 22 Jan 16:44:26 16:48:05 21° 66° (ENE) 16:51:34 437.250
AO-7 22 Jan 16:46:29 16:52:32 22° 269° (W) 16:58:40 29.400- 29.500
STARS 22 Jan 16:48:25 16:52:24 33° 97° (E) 16:56:22 437.465
BEESAT 3 22 Jan 16:49:36 16:53:17 39° 310° (NW) 16:57:02 437.485
CUTE-I 22 Jan 17:10:42 17:15:38 41° 68° (ENE) 17:20:36 437.470
Cosmos 2504 22 Jan 17:10:58 17:16:42 20° 297° (WNW) 17:22:16 435.465 / 435.565
O/OREOS (USA 219) 22 Jan 17:12:31 17:15:27 17° 260° (W) 17:18:22 437.305
MOZHAYETS 4 22 Jan 17:16:34 17:19:59 21° 296° (WNW) 17:23:24
LilacSat-2 22 Jan 17:17:15 17:20:49 41° 72° (ENE) 17:24:24 437.200
DANDE 22 Jan 17:21:55 17:25:13 13° 282° (WNW) 17:28:35 436.750
M-CUBED/EXP-1 PRIME 22 Jan 17:31:27 17:34:26 30° 295° (WNW) 17:37:19 437.505
KKS-1 22 Jan 17:38:19 17:42:18 33° 291° (WNW) 17:46:16 437.445
BEESAT 2 22 Jan 17:39:55 17:43:25 29° 313° (NW) 17:46:58 435.950
HO-68 22 Jan 17:45:58 17:51:48 28° 58° (ENE) 17:57:39 435.675
HORYU 2 22 Jan 17:47:01 17:50:55 31° 263° (W) 17:54:52 437.375
GOMX 1 22 Jan 17:53:54 17:58:52 38° 263° (W) 18:03:38 467.674
Cubesat XI-IV 22 Jan 17:54:15 17:59:34 84° 256° (WSW) 18:04:56 437.490
NOAA 15 22 Jan 17:54:31 17:59:49 79° 256° (WSW) 18:05:10 137.62
CINEMA 3 22 Jan 17:55:42 17:59:09 24° 68° (ENE) 18:02:32 145.822/145.860
BRITE-PL 22 Jan 18:04:19 18:07:44 16° 271° (W) 18:11:07 437.365/2234.400
AUBIESAT-1 22 Jan 18:06:46 18:08:49 16° 300° (WNW) 18:10:51 437.475
CUBESAT XI-V 22 Jan 18:08:07 18:12:23 35° 291° (WNW) 18:16:35 437.345
NOAA 18 22 Jan 18:18:04 18:23:34 89° 254° (WSW) 18:29:06 137.9125
GONETS M04 22 Jan 18:20:26 18:26:10 20° 77° (ENE) 18:31:55
DOVE 4 22 Jan 18:20:46 18:25:30 46° 261° (W) 18:30:01 437.250
AIST 2 22 Jan 18:22:12 18:25:02 18° 111° (ESE) 18:27:55 435.215
STARS 22 Jan 18:25:04 18:28:35 24° 294° (WNW) 18:32:05 437.465
CUTE 1.7 + AOD 2 22 Jan 18:33:18 18:37:06 32° 70° (ENE) 18:40:55 437.475
CUBEBUG 2 22 Jan 18:35:09 18:37:28 15° 63° (ENE) 18:39:48 437.445
CUTE-I 22 Jan 18:51:23 18:55:48 27° 265° (W) 19:00:16 437.470
LilacSat-2 22 Jan 18:53:12 18:55:18 14° 269° (W) 18:57:25 437.200
UWE-3 22 Jan 18:58:00 19:00:36 16° 64° (ENE) 19:03:12 435.000/436.395/437.385
CANX-2 22 Jan 19:02:32 19:06:47 79° 76° (ENE) 19:11:05 2200.000
SEEDS 22 Jan 19:08:29 19:12:35 52° 73° (ENE) 19:16:44 437.485
COMPASS 1 22 Jan 19:09:23 19:13:13 35° 70° (ENE) 19:17:05 437.405
ZACube-1 22 Jan 19:11:34 19:13:44 14° 63° (ENE) 19:15:55 437.345
STRAND 1 22 Jan 19:14:33 19:19:16 36° 97° (E) 19:23:59 437.568
AAUSAT CUBESAT 2 22 Jan 19:18:09 19:21:55 34° 70° (ENE) 19:25:43 437.432
Cosmos 2499 22 Jan 19:19:59 19:28:07 58° 92° (E) 19:35:41 435.465 / 435.565
HO-68 22 Jan 19:31:51 19:38:59 65° 257° (WSW) 19:46:11 435.675
CINEMA 3 22 Jan 19:32:14 19:36:10 32° 263° (W) 19:40:00 145.822/145.860
Cubesat XI-IV 22 Jan 19:39:24 19:40:25 10° 273° (W) 19:41:25 437.490
Oscar 11 22 Jan 19:41:39 19:45:12 25° 67° (ENE) 19:48:46 145.826/435.025
AIST 2 22 Jan 19:59:10 20:03:09 47° 309° (NW) 20:07:13 435.215
NOAA 18 22 Jan 20:02:54 20:04:57 12° 272° (W) 20:07:01 137.9125
CUTE 1.7 + AOD 2 22 Jan 20:09:34 20:12:58 23° 266° (W) 20:16:24 437.475
CUBEBUG 2 22 Jan 20:09:39 20:13:41 52° 260° (W) 20:17:45 437.445
GONETS M04 22 Jan 20:13:01 20:21:45 87° 277° (W) 20:30:35
DELFI C3 22 Jan 20:13:59 20:16:46 18° 66° (ENE) 20:19:34 145.870
FUNcube-1 22 Jan 20:20:47 20:24:52 70° 75° (ENE) 20:29:03 145.935
AO-85 22 Jan 20:32:31 20:33:57 12° 35° (NE) 20:35:23 145.980
UWE-3 22 Jan 20:32:44 20:36:42 45° 261° (W) 20:40:43 435.000/436.395/437.385
HUMSAT D 22 Jan 20:35:03 20:37:52 18° 65° (ENE) 20:40:42 437.325/437.525
PRISM 22 Jan 20:38:59 20:40:37 12° 90° (E) 20:42:15 437.425
ZACube-1 22 Jan 20:45:30 20:49:33 56° 260° (W) 20:53:40 437.345
COMPASS 1 22 Jan 20:45:41 20:48:50 21° 267° (W) 20:52:03 437.405
SEEDS 22 Jan 20:46:18 20:48:36 14° 270° (W) 20:50:55 437.485
STRAND 1 22 Jan 20:53:54 20:58:20 30° 294° (WNW) 21:02:45 437.568
AAUSAT CUBESAT 2 22 Jan 20:54:14 20:57:27 21° 267° (W) 21:00:41 437.432
RS-15 22 Jan 21:01:24 21:03:24 11° 90° (E) 21:05:24 29.354- 29.394
Cosmos 2499 22 Jan 21:14:31 21:21:36 31° 290° (WNW) 21:28:18 435.465 / 435.565
Oscar 11 22 Jan 21:17:22 21:21:12 31° 264° (W) 21:25:04 145.826/435.025
HO-68 22 Jan 21:26:53 21:28:02 10° 276° (W) 21:29:10 435.675
ISS 22 Jan 21:35:14 21:38:23 45° 141° (SE) 21:41:31 145.825
JAS-2 22 Jan 21:37:52 21:41:06 13° 85° (E) 21:44:25 435.910
DELFI C3 22 Jan 21:47:33 21:51:18 38° 263° (W) 21:55:05 145.870
UNISAT 6 22 Jan 21:47:57 21:51:39 25° 95° (E) 21:55:22 437.425
BY70-1 22 Jan 21:52:33 21:55:08 24° 69° (ENE) 21:57:52 436.1900
TIGRISAT 22 Jan 22:00:16 22:04:13 31° 96° (E) 22:08:15 435.000
ESTCUBE 1 22 Jan 22:08:23 22:12:12 27° 67° (ENE) 22:16:01 437.505/2401.250
HUMSAT D 22 Jan 22:09:16 22:13:09 41° 262° (W) 22:17:07 437.325/437.525
VELOX 1 22 Jan 22:11:04 22:12:26 11° 59° (ENE) 22:13:49 145.980
AO-85 22 Jan 22:11:08 22:15:04 78° 55° (NE) 22:18:58 145.980
PRISM 22 Jan 22:12:14 22:16:18 58° 287° (WNW) 22:20:17 437.425
GONETS M04 22 Jan 22:13:57 22:19:57 20° 300° (WNW) 22:26:01
ANTELSAT 22 Jan 22:15:56 22:20:16 47° 100° (E) 22:24:40 437.575/2403.000
CUBEBUG 1 22 Jan 22:47:26 22:51:32 39° 71° (ENE) 22:55:38 437.445
POLYITAN 1 22 Jan 22:50:45 22:51:17 10° 89° (E) 22:51:50 437.675
QB50P2 22 Jan 22:51:17 22:52:42 11° 89° (E) 22:54:06 145.880/145.840
50 SAT 22 Jan 22:56:18 22:58:54 19° 67° (ENE) 23:01:30 437.505
RS-15 22 Jan 23:01:24 23:12:46 56° 112° (ESE) 23:24:35 29.354- 29.394
PCSat 22 Jan 23:07:59 23:10:57 15° 104° (ESE) 23:13:57 145.827
AISAT 22 Jan 23:10:47 23:15:02 46° 71° (ENE) 23:19:17 437.250
POPSAT HIP 1 22 Jan 23:10:52 23:13:42 17° 92° (E) 23:16:33 437.405
ISS 22 Jan 23:11:58 23:14:56 32° 339° (NNW) 23:17:55 145.825
DUCHIFAT 1 22 Jan 23:18:12 23:21:06 18° 93° (E) 23:24:00 145.980
JAS-2 22 Jan 23:19:48 23:27:06 70° 102° (ESE) 23:34:54 435.910
BY70-1 22 Jan 23:23:18 23:25:24 17° 267° (W) 23:27:36 436.1900
UNISAT 6 22 Jan 23:24:22 23:28:23 33° 290° (WNW) 23:32:27 437.425
NANOSAT C BR1 22 Jan 23:24:49 23:28:12 23° 95° (E) 23:31:35 145.865
BEESAT 3 22 Jan 23:28:09 23:31:14 21° 43° (NE) 23:34:18 437.485
TIGRISAT 22 Jan 23:37:04 23:40:49 27° 292° (WNW) 23:44:38 435.000
YUBILEINY 22 Jan 23:38:49 23:45:12 21° 61° (ENE) 23:51:32 435.215
BUGSAT 1 22 Jan 23:43:09 23:44:25 11° 90° (E) 23:45:41 437.445
VELOX 1 22 Jan 23:43:46 23:48:14 84° 258° (WSW) 23:52:42 145.980
ESTCUBE 1 22 Jan 23:44:50 23:48:53 32° 264° (W) 23:52:58 437.505/2401.250
SPROUT 22 Jan 23:52:24 23:56:39 88° 76° (ENE) 00:00:55 437.525
ANTELSAT 22 Jan 23:53:32 23:56:38 19° 296° (WNW) 23:59:47 437.575/2403.000
UKube-1 23 Jan 00:00:43 00:04:56 53° 72° (ENE) 00:09:09 .
DX 1 23 Jan 00:06:54 00:11:17 85° 73° (ENE) 00:15:40 434.975-435.025
QB50P1 23 Jan 00:18:16 00:22:30 83° 285° (WNW) 00:26:44 145.935-145.965
BEESAT 2 23 Jan 00:18:35 00:22:07 28° 46° (NE) 00:25:38 435.950
POLYITAN 1 23 Jan 00:23:19 00:27:34 73° 285° (WNW) 00:31:47 437.675
CUBEBUG 1 23 Jan 00:24:40 00:27:57 20° 267° (W) 00:31:14 437.445
QB50P2 23 Jan 00:24:43 00:28:55 65° 285° (WNW) 00:33:07 145.880/145.840
50 SAT 23 Jan 00:28:48 00:31:55 28° 263° (W) 00:35:04 437.505
Cosmos 2491 23 Jan 00:32:31 00:38:13 20° 77° (ENE) 00:43:56 435.465 / 435.565
PHONESAT 2.4 23 Jan 00:40:45 00:41:29 11° 156° (SSE) 00:42:13 2401.200-2431.200
POPSAT HIP 1 23 Jan 00:45:41 00:49:40 42° 289° (WNW) 00:53:40 437.405
PCSat 23 Jan 00:48:13 00:53:38 79° 301° (WNW) 00:59:07 145.827
AISAT 23 Jan 00:48:43 00:51:43 18° 268° (W) 00:54:44 437.250
ISS 23 Jan 00:49:42 00:52:07 19° 359° (N) 00:54:31 145.825
DUCHIFAT 1 23 Jan 00:53:01 00:56:57 40° 289° (WNW) 01:00:54 145.980
NANOSAT C BR1 23 Jan 01:00:13 01:03:57 31° 291° (WNW) 01:07:41 145.865
ITUPSAT 1 23 Jan 01:02:22 01:05:33 18° 62° (ENE) 01:08:45 437.325
AIST 1 23 Jan 01:03:30 01:07:47 86° 267° (W) 01:12:02
BEESAT 3 23 Jan 01:05:13 01:09:04 46° 241° (WSW) 01:12:53 437.485
JAS-2 23 Jan 01:05:45 01:11:35 28° 299° (WNW) 01:17:47 435.910
Cosmos 2504 23 Jan 01:05:45 01:12:20 34° 70° (ENE) 01:18:41 435.465 / 435.565
TISAT 1 23 Jan 01:10:37 01:14:47 87° 256° (WSW) 01:18:58 437.305
RS-15 23 Jan 01:13:48 01:25:28 54° 317° (NW) 01:37:35 29.354- 29.394
BUGSAT 1 23 Jan 01:16:11 01:20:10 61° 286° (WNW) 01:24:11 437.445
Oscar 19 23 Jan 01:26:40 01:31:34 41° 98° (E) 01:36:24 437.125/150
BEESAT 23 Jan 01:33:46 01:38:03 35° 68° (ENE) 01:42:23 436.000
YUBILEINY 23 Jan 01:34:23 01:43:16 88° 265° (W) 01:52:03 435.215
SWISSCUBE 23 Jan 01:35:32 01:39:58 40° 69° (ENE) 01:44:26 437.505
UKube-1 23 Jan 01:38:49 01:41:16 15° 269° (W) 01:43:43 .
CUSAT 1 23 Jan 01:47:04 01:50:35 17° 78° (ENE) 01:54:33 437.405
BEESAT 2 23 Jan 01:56:18 01:59:55 32° 244° (WSW) 02:03:30 435.950
Gurwin Techsat 1B 23 Jan 02:02:54 02:08:04 49° 99° (E) 02:13:12 435.225
PHONESAT 2.4 23 Jan 02:12:54 02:14:55 31° 172° (S) 02:16:57 2401.200-2431.200
ITAMSAT 1 23 Jan 02:17:30 02:19:54 13° 89° (E) 02:22:17 435.822/435.867
Cosmos 2491 23 Jan 02:25:07 02:33:50 87° 277° (W) 02:42:38 435.465 / 435.565
ISS 23 Jan 02:26:22 02:29:18 30° 20° (NNE) 02:32:14 145.825
PCSat 23 Jan 02:34:31 02:37:56 17° 322° (NW) 02:41:23 145.827
ITUPSAT 1 23 Jan 02:38:17 02:42:57 56° 259° (W) 02:47:40 437.325
AIST 2 23 Jan 02:41:20 02:44:40 22° 43° (NE) 02:47:58 435.215
MOZHAYETS 4 23 Jan 02:41:23 02:45:47 49° 72° (ENE) 02:50:14
M-CUBED/EXP-1 PRIME 23 Jan 02:43:35 02:47:21 31° 65° (ENE) 02:50:53 437.505
AO-7 23 Jan 02:51:49 02:58:25 25° 93° (E) 03:04:57 29.400- 29.500
Cosmos 2504 23 Jan 02:58:59 03:05:52 45° 271° (W) 03:12:34 435.465 / 435.565
KKS-1 23 Jan 03:01:10 03:04:52 26° 67° (ENE) 03:08:35 437.445
DANDE 23 Jan 03:05:29 03:08:23 18° 80° (E) 03:11:49 436.750
Oscar 19 23 Jan 03:06:25 03:10:40 26° 296° (WNW) 03:14:53 437.125/150
BEESAT 23 Jan 03:11:54 03:15:52 26° 265° (W) 03:19:53 436.000
SWISSCUBE 23 Jan 03:14:09 03:17:53 23° 266° (W) 03:21:40 437.505
AUBIESAT-1 23 Jan 03:17:22 03:21:29 58° 69° (ENE) 03:25:19 437.475
CUSAT 1 23 Jan 03:25:47 03:31:14 79° 282° (WNW) 03:38:19 437.405
RS-15 23 Jan 03:31:39 03:41:44 28° 349° (N) 03:51:55 29.354- 29.394
YUBILEINY 23 Jan 03:33:15 03:38:43 19° 284° (WNW) 03:44:12 435.215
CUBESAT XI-V 23 Jan 03:35:15 03:39:17 29° 67° (ENE) 03:43:21 437.345
Gurwin Techsat 1B 23 Jan 03:43:31 03:47:42 24° 297° (WNW) 03:51:53 435.225
STARS 23 Jan 03:45:57 03:49:55 35° 69° (ENE) 03:53:54 437.465
PHONESAT 2.4 23 Jan 03:46:30 03:48:32 31° 188° (S) 03:50:34 2401.200-2431.200
ITAMSAT 1 23 Jan 03:54:44 03:59:58 80° 287° (WNW) 04:05:11 435.822/435.867
ISS 23 Jan 04:02:44 04:05:54 50° 218° (SW) 04:09:03 145.825
M-CUBED/EXP-1 PRIME 23 Jan 04:18:15 04:21:47 25° 258° (WSW) 04:25:09 437.505
AIST 2 23 Jan 04:19:16 04:23:24 50° 241° (WSW) 04:27:29 435.215
MOZHAYETS 4 23 Jan 04:20:09 04:23:13 18° 269° (W) 04:26:19
Cosmos 2491 23 Jan 04:26:06 04:32:03 20° 300° (WNW) 04:38:04 435.465 / 435.565
BRITE-PL 23 Jan 04:28:27 04:32:02 21° 91° (E) 04:35:25 437.365/2234.400
GONETS M04 23 Jan 04:30:12 04:31:04 10° 49° (NE) 04:31:57
KKS-1 23 Jan 04:37:22 04:41:19 31° 263° (W) 04:45:17 437.445
AO-7 23 Jan 04:43:33 04:51:55 75° 292° (WNW) 05:00:11 29.400- 29.500
DANDE 23 Jan 04:46:15 04:50:17 46° 288° (WNW) 04:55:44 436.750
AUBIESAT-1 23 Jan 04:54:11 04:56:06 13° 262° (W) 04:57:59 437.475
Cosmos 2499 23 Jan 05:11:02 05:15:52 19° 63° (ENE) 05:20:38 435.465 / 435.565
CUSAT 1 23 Jan 05:11:21 05:14:44 15° 306° (NW) 05:18:29 437.405
CUBESAT XI-V 23 Jan 05:12:24 05:16:35 31° 265° (W) 05:20:48 437.345
PHONESAT 2.4 23 Jan 05:21:08 05:21:58 11° 204° (SSW) 05:22:49 2401.200-2431.200
STARS 23 Jan 05:22:53 05:26:20 23° 266° (W) 05:29:49 437.465
CUTE-I 23 Jan 05:27:48 05:30:42 15° 89° (E) 05:33:36 437.470
HORYU 2 23 Jan 05:36:01 05:40:16 42° 99° (E) 05:44:31 437.375
ITAMSAT 1 23 Jan 05:36:41 05:38:35 12° 304° (NW) 05:40:28 435.822/435.867
O/OREOS (USA 219) 23 Jan 05:45:28 05:49:43 45° 108° (ESE) 05:54:00 437.305
RS-15 23 Jan 05:48:28 05:59:21 34° 24° (NNE) 06:10:02 29.354- 29.394
GOMX 1 23 Jan 05:54:38 05:58:58 60° 100° (E) 06:03:06 467.674
BRITE-PL 23 Jan 06:06:14 06:10:46 41° 290° (WNW) 06:14:58 437.365/2234.400
NOAA 15 23 Jan 06:08:44 06:13:36 35° 97° (E) 06:18:26 137.62
Cubesat XI-IV 23 Jan 06:10:29 06:15:23 35° 97° (E) 06:20:15 437.490
DOVE 4 23 Jan 06:18:26 06:22:22 40° 98° (E) 06:26:16 437.250
GONETS M04 23 Jan 06:21:55 06:30:30 51° 74° (ENE) 06:39:01
LilacSat-2 23 Jan 06:23:10 06:26:59 54° 100° (E) 06:30:47 437.200
STRAND 1 23 Jan 06:31:24 06:36:22 58° 72° (ENE) 06:41:24 437.568
AO-7 23 Jan 06:37:55 06:43:20 19° 313° (NW) 06:48:44 29.400- 29.500
NOAA 18 23 Jan 06:39:12 06:44:10 34° 97° (E) 06:49:05 137.9125
SO-50 23 Jan 06:43:25 06:47:21 26° 114° (ESE) 06:51:14 436.795
CANX-2 23 Jan 06:48:06 06:50:06 13° 90° (E) 06:52:04 2200.000
HO-68 23 Jan 06:59:07 07:04:40 24° 92° (E) 07:10:10 435.675
Cosmos 2499 23 Jan 07:02:47 07:09:55 79° 264° (W) 07:16:59 435.465 / 435.565
CUTE-I 23 Jan 07:05:58 07:11:18 75° 287° (WNW) 07:16:39 437.470
HORYU 2 23 Jan 07:13:15 07:16:32 21° 296° (WNW) 07:19:49 437.375
CINEMA 3 23 Jan 07:24:41 07:28:47 48° 99° (E) 07:32:59 145.822/145.860
O/OREOS (USA 219) 23 Jan 07:26:00 07:29:21 20° 306° (NW) 07:32:43 437.305
PRISM 23 Jan 07:30:00 07:31:30 12° 61° (ENE) 07:32:59 437.425
GOMX 1 23 Jan 07:34:20 07:36:31 14° 299° (WNW) 07:38:38 467.674
NOAA 15 23 Jan 07:48:37 07:53:17 32° 294° (WNW) 07:57:55 137.62
Cubesat XI-IV 23 Jan 07:50:40 07:55:22 32° 294° (WNW) 08:00:04 437.490
CUTE 1.7 + AOD 2 23 Jan 07:52:08 07:56:23 55° 100° (E) 08:00:34 437.475
PCSat 23 Jan 07:52:25 07:56:26 20° 41° (NE) 08:00:26 145.827
DOVE 4 23 Jan 07:56:57 07:59:48 18° 295° (WNW) 08:02:37 437.250
CUBEBUG 2 23 Jan 07:58:54 08:02:42 28° 96° (E) 08:06:34 437.445
LilacSat-2 23 Jan 07:59:03 08:00:49 13° 296° (WNW) 08:02:35 437.200
RS-15 23 Jan 08:01:49 08:14:17 77° 53° (NE) 08:26:15 29.354- 29.394
FUNcube-1 23 Jan 08:08:54 08:10:58 13° 90° (E) 08:13:02 145.935
STRAND 1 23 Jan 08:12:31 08:15:55 18° 269° (W) 08:19:21 437.568
GONETS M04 23 Jan 08:19:10 08:27:03 38° 275° (W) 08:34:56
NOAA 18 23 Jan 08:19:54 08:24:47 34° 294° (WNW) 08:29:38 137.9125
UWE-3 23 Jan 08:20:40 08:24:36 31° 96° (E) 08:28:35 435.000/436.395/437.385
CANX-2 23 Jan 08:22:05 08:26:20 59° 286° (WNW) 08:30:32 2200.000
SO-50 23 Jan 08:23:10 08:27:38 41° 311° (NW) 08:32:04 436.795
COMPASS 1 23 Jan 08:25:55 08:30:04 57° 100° (E) 08:34:11 437.405
SEEDS 23 Jan 08:26:29 08:30:47 89° 102° (ESE) 08:35:01 437.485
ZACube-1 23 Jan 08:32:31 08:36:12 25° 95° (E) 08:39:55 437.345
AAUSAT CUBESAT 2 23 Jan 08:33:59 08:38:06 53° 100° (E) 08:42:10 437.432
HO-68 23 Jan 08:45:49 08:52:57 69° 291° (WNW) 09:00:02 435.675
UNISAT 6 23 Jan 08:48:14 08:51:39 24° 67° (ENE) 08:55:06 437.425
CUTE-I 23 Jan 08:48:44 08:50:27 11° 305° (NW) 08:52:09 437.470
Cosmos 2499 23 Jan 08:59:09 09:01:42 12° 284° (WNW) 09:04:15 435.465 / 435.565
TIGRISAT 23 Jan 09:00:16 09:03:57 29° 68° (ENE) 09:07:39 435.000
PRISM 23 Jan 09:02:03 09:06:12 72° 258° (WSW) 09:10:22 437.425
Oscar 11 23 Jan 09:02:46 09:06:57 42° 98° (E) 09:11:05 145.826/435.025
CINEMA 3 23 Jan 09:02:58 09:05:35 16° 295° (WNW) 09:08:15 145.822/145.860
ANTELSAT 23 Jan 09:15:53 09:19:56 45° 72° (ENE) 09:24:02 437.575/2403.000
DELFI C3 23 Jan 09:23:48 09:27:02 23° 94° (E) 09:30:14 145.870
CUTE 1.7 + AOD 2 23 Jan 09:29:16 09:31:46 15° 297° (WNW) 09:34:15 437.475
JAS-2 23 Jan 09:34:45 09:39:30 30° 63° (ENE) 09:44:41 435.910
PCSat 23 Jan 09:35:01 09:40:28 79° 242° (WSW) 09:45:53 145.827
CUBEBUG 2 23 Jan 09:35:30 09:39:15 29° 291° (WNW) 09:43:06 437.445
FUNcube-1 23 Jan 09:43:13 09:47:35 63° 286° (WNW) 09:52:01 145.935
QB50P2 23 Jan 09:45:49 09:46:59 11° 60° (ENE) 09:48:08 145.880/145.840
HUMSAT D 23 Jan 09:51:17 09:54:59 28° 95° (E) 09:58:41 437.325/437.525
UWE-3 23 Jan 09:57:16 10:00:57 27° 292° (WNW) 10:04:43 435.000/436.395/437.385
COMPASS 1 23 Jan 10:02:53 10:05:09 14° 297° (WNW) 10:07:23 437.405
POPSAT HIP 1 23 Jan 10:04:55 10:07:29 16° 63° (ENE) 10:10:02 437.405
ZACube-1 23 Jan 10:08:33 10:12:30 32° 290° (WNW) 10:16:29 437.345
AAUSAT CUBESAT 2 23 Jan 10:10:46 10:13:08 15° 297° (WNW) 10:15:29 437.432
DUCHIFAT 1 23 Jan 10:11:36 10:14:11 16° 64° (ENE) 10:16:47 145.980
RS-15 23 Jan 10:15:22 10:25:39 33° 256° (WSW) 10:35:37 29.354- 29.394
NANOSAT C BR1 23 Jan 10:18:16 10:21:22 21° 66° (ENE) 10:24:29 145.865
UNISAT 6 23 Jan 10:24:27 10:28:14 31° 264° (W) 10:32:03 437.425
BY70-1 23 Jan 10:27:03 10:27:57 11° 90° (E) 10:28:50 436.1900
BUGSAT 1 23 Jan 10:35:32 10:35:49 10° 60° (ENE) 10:36:07 437.445
HO-68 23 Jan 10:35:39 10:39:25 15° 310° (NW) 10:43:10 435.675
TIGRISAT 23 Jan 10:37:07 10:40:38 25° 265° (W) 10:44:10 435.000
Oscar 11 23 Jan 10:39:39 10:42:46 19° 295° (WNW) 10:45:53 145.826/435.025
Cosmos 2491 23 Jan 10:42:41 10:43:11 10° 50° (NE) 10:43:42 435.465 / 435.565
ANTELSAT 23 Jan 10:54:14 10:56:55 16° 269° (W) 10:59:35 437.575/2403.000
DELFI C3 23 Jan 10:58:23 11:01:50 28° 291° (WNW) 11:05:13 145.870
Oscar 19 23 Jan 11:10:49 11:11:12 10° 55° (NE) 11:11:36 437.125/150
QB50P1 23 Jan 11:11:21 11:15:32 83° 76° (ENE) 11:19:45 145.935-145.965
POLYITAN 1 23 Jan 11:16:35 11:20:46 86° 256° (WSW) 11:24:59 437.675
QB50P2 23 Jan 11:17:57 11:22:09 77° 258° (WSW) 11:26:22 145.880/145.840
JAS-2 23 Jan 11:19:22 11:24:25 40° 264° (W) 11:30:01 435.910
PCSat 23 Jan 11:21:54 11:22:55 10° 259° (W) 11:23:57 145.827
HUMSAT D 23 Jan 11:26:52 11:30:31 28° 292° (WNW) 11:34:11 437.325/437.525
VELOX 1 23 Jan 11:33:46 11:36:35 17° 92° (E) 11:39:22 145.980
ESTCUBE 1 23 Jan 11:35:30 11:39:55 48° 99° (E) 11:44:16 437.505/2401.250
SPROUT 23 Jan 11:38:29 11:40:41 14° 91° (E) 11:42:51 437.525
POPSAT HIP 1 23 Jan 11:38:48 11:42:52 49° 260° (W) 11:46:57 437.405
DUCHIFAT 1 23 Jan 11:45:28 11:49:29 48° 261° (W) 11:53:32 145.980
Gurwin Techsat 1B 23 Jan 11:48:53 11:51:15 13° 57° (ENE) 11:53:36 435.225
NANOSAT C BR1 23 Jan 11:53:00 11:56:52 36° 263° (W) 12:00:45 145.865
50 SAT 23 Jan 11:53:27 11:55:52 17° 93° (E) 11:58:15 437.505
BY70-1 23 Jan 11:55:27 11:58:26 35° 289° (WNW) 12:01:14 436.1900
DX 1 23 Jan 11:55:37 11:57:40 13° 91° (E) 11:59:43 434.975-435.025
BUGSAT 1 23 Jan 12:06:32 12:10:35 78° 257° (WSW) 12:14:37 437.445
AO-7 23 Jan 12:07:54 12:08:54 10° 36° (NE) 12:09:54 29.400- 29.500
CUBEBUG 1 23 Jan 12:10:34 12:14:54 67° 102° (ESE) 12:19:10 437.445
CUSAT 1 23 Jan 12:16:46 12:22:21 20° 59° (ENE) 12:27:40 437.405
AO-85 23 Jan 12:27:07 12:30:33 20° 113° (ESE) 12:33:49 145.980
Cosmos 2491 23 Jan 12:34:07 12:42:38 51° 75° (ENE) 12:51:08 435.465 / 435.565
AISAT 23 Jan 12:35:43 12:40:07 80° 102° (ESE) 12:44:30 437.250
YUBILEINY 23 Jan 12:42:50 12:49:07 22° 78° (ENE) 12:55:24 435.215
Oscar 19 23 Jan 12:44:23 12:49:33 68° 73° (ENE) 12:54:44 437.125/150
TISAT 1 23 Jan 12:54:51 12:56:49 13° 91° (E) 12:58:46 437.305
VELOX 1 23 Jan 13:09:04 13:13:18 48° 289° (WNW) 13:17:30 145.980
SPROUT 23 Jan 13:12:45 13:16:56 55° 287° (WNW) 13:21:05 437.525
ESTCUBE 1 23 Jan 13:13:13 13:16:21 19° 297° (WNW) 13:19:29 437.505/2401.250
UKube-1 23 Jan 13:22:16 13:26:36 83° 103° (ESE) 13:30:54 .
Gurwin Techsat 1B 23 Jan 13:25:04 13:30:22 86° 75° (ENE) 13:35:44 435.225
50 SAT 23 Jan 13:26:00 13:29:08 29° 290° (WNW) 13:32:13 437.505
DX 1 23 Jan 13:29:57 13:34:15 59° 287° (WNW) 13:38:29 434.975-435.025
AIST 1 23 Jan 13:33:33 13:37:47 52° 94° (E) 13:42:01
ITAMSAT 1 23 Jan 13:35:52 13:39:57 24° 63° (ENE) 13:44:03 435.822/435.867
DANDE 23 Jan 13:38:17 13:45:05 30° 67° (ENE) 13:52:10 436.750
Cosmos 2504 23 Jan 13:45:15 13:52:20 30° 84° (E) 13:59:04 435.465 / 435.565
CUBEBUG 1 23 Jan 13:48:38 13:50:37 13° 299° (WNW) 13:52:35 437.445
AO-7 23 Jan 13:51:46 13:59:22 41° 59° (ENE) 14:07:00 29.400- 29.500
CUSAT 1 23 Jan 13:57:28 14:05:32 84° 80° (E) 14:12:44 437.405
AO-85 23 Jan 14:06:10 14:10:42 50° 308° (NW) 14:14:55 145.980
AISAT 23 Jan 14:14:29 14:15:57 11° 300° (WNW) 14:17:23 437.250
O/OREOS (USA 219) 23 Jan 14:16:09 14:18:35 14° 50° (NE) 14:21:00 437.305
Oscar 19 23 Jan 14:26:18 14:29:21 16° 270° (W) 14:32:25 437.125/150
TISAT 1 23 Jan 14:28:42 14:32:47 56° 287° (WNW) 14:36:53 437.305
Cosmos 2491 23 Jan 14:31:23 14:39:12 38° 275° (W) 14:47:02 435.465 / 435.565
YUBILEINY 23 Jan 14:35:59 14:44:49 81° 278° (W) 14:53:44 435.215
ITUPSAT 1 23 Jan 14:37:37 14:41:59 33° 97° (E) 14:46:19 437.325
MOZHAYETS 4 23 Jan 14:37:57 14:38:50 10° 88° (E) 14:39:44
